Find Elisa E24

NORAD ID: 38008 Int'l Des: 2011-076 Owner: DGA Country: F operational
LEOCIRCULARRETROGRADESSO

リアルタイム位置

3D地球を読み込み中...

Elisa E24について

説明を読み込み中...

次回通過

Passes for default location (London). Set your location on the main map for personalized predictions.

高度履歴

Loading altitude history...

軌道要素

1 38008U 11076B 26139.80859481 .00001056 00000-0 11456-3 0 9990
2 38008 97.6534 161.3214 0001902 81.2496 278.8938 14.90187937774614
Epoch: May 19, 2026 • Age: 5 hours

現在のステータス

高度 604.1 km
速度 7.56 km/s
衛星直下点 49.54°N, 92.14°W
打ち上げ日 Dec 17, 2011
運用期間 14.4 years
タイプ other

技術仕様

分類 Payload
質量 120.00 kg
乾燥質量 120.00 kg
総質量 120.00 kg
長さ 0.60 m
直径 1.00 m
スパン 1.00 m
形状 Box + Pan
製造者 ASTT
バスタイプ Myriade
フェーズステータス In Orbit
所有者/国 DGA/F

Most Searched